Starlink 5161

operational
NORAD ID: 54163 Int'l Des: 2022-141 Owner: SPXS Country: US Constellation: starlink
LEOCIRCULAR

关于 Starlink 5161

正在加载描述...

实时位置

正在加载3D地球...

即将过境

高度历史

Altitude vs Time

uPlot chart will show altitude changes over time

两行轨道根数

1 54163U 22141G 25303.78250770 -.00000242 00000-0 28750-5 0 9994
2 54163 53.2165 227.4688 0001524 83.2861 276.8304 15.08844095166243
Epoch: Oct 30, 2025 • Age: 12 hours

当前状态

高度 553.8 km
速度 7.58 km/s
星下点 -40.19°S, 37.44°E
发射日期 Oct 28, 2022
运行时间 3 years
类型 internet

技术详情

分类 Payload
质量 305.00 kg
干质量 290.00 kg
总质量 305.00 kg
长度 0.20 m
直径 2.80 m
跨度 9.00 m
形状 Box + pan
制造商 SPXS
平台类型 Starlink
阶段状态 In Orbit
所有者/国家 SPXS/US

大型星座

Loading constellations...